Flag for Canada Weather past 2 weeks in Abbotsford, British Columbia, Canada

Now
55 °F

Sprinkles. Partly cloudy.


Feels Like: 50 °F
Forecast: 52 / 56 °F
Wind: 22 mph from Southeast

Location: Abbotsford

Current Time: Oct 22, 2014 at 7:48:01 AM

Latest Report: Oct 22, 2014 at 7:00 AM


Visibility: 7 mi

Pressure: 29.60 "Hg

Humidity: 88%

Dew point: 52 °F

Location of AbbotsfordLocation

Historic Weather in Abbotsford — Graph

°F

Abbotsford temperature yesterday

Maximum temperature yesterday: 61 °F (at 12:00 PM)
Minimum temperature yesterday: 54 °F (at 12:00 AM)
Average temperature yesterday: 57 °F

Past Weeks' High & Low Weather Summary

 TemperatureHumidityPressure
High72 °F (Oct 19, 2:00 PM)100% (Oct 7, 6:00 AM)30.24 "Hg (Oct 7, 6:00 AM)
Low46 °F (Oct 10, 6:00 AM)52% (Oct 22, 2:00 AM)29.52 "Hg (Oct 15, 2:00 AM)
Average56 °F90%29.88 "Hg
* Reported Oct 7 6:00 AM — Oct 22 6:00 AM, Abbotsford, Weather by CustomWeather, © 2014

Note: Actual official high and low records may vary slightly from our data, if they occured in-between our weather recording intervals... More about our weather records

Advertising

Abbotsford weather history for previous 24 hours

 ConditionsComfort  
Time TempWeatherWind HumidityBarometerVisibility
6:00 AM
Oct 22
55 °FLight rain. Mostly cloudy.12 mph88%29.64 "Hg10 mi
5:00 AM55 °FLight rain. Overcast.12 mph88%29.63 "Hg8 mi
4:00 AM55 °FLight rain. Mostly cloudy.16 mph82%29.60 "Hg8 mi
3:00 AM59 °FLight rain. Overcast.18 mph68%29.59 "Hg8 mi
2:00 AM63 °FMostly cloudy.22 mph52%29.59 "Hg15 mi
1:00 AM61 °FLight rain. Mostly cloudy.14 mph55%29.62 "Hg15 mi
12:00 AM59 °FMostly cloudy.10 mph63%29.66 "Hg15 mi
11:00 PM
Oct 21
61 °FMostly cloudy.18 mph59%29.70 "Hg15 mi
10:00 PM61 °FOvercast.13 mph63%29.71 "Hg15 mi
9:00 PM59 °FMostly cloudy.21 mph68%29.73 "Hg15 mi
8:00 PM57 °FLight rain. Mostly cloudy.12 mph72%29.77 "Hg15 mi
7:00 PM59 °FSprinkles. Mostly cloudy.18 mph68%29.80 "Hg10 mi
6:48 PM59 °FSprinkles. Broken clouds.16 mph68%29.80 "Hg10 mi
6:00 PM59 °FPartly sunny.16 mph68%29.81 "Hg20 mi
5:00 PM59 °FPartly sunny.13 mph68%29.82 "Hg25 mi
4:00 PM61 °FBroken clouds.14 mph63%29.83 "Hg20 mi
3:00 PM61 °FBroken clouds.17 mph63%29.83 "Hg25 mi
2:00 PM61 °FCloudy.16 mph68%29.85 "Hg20 mi
1:00 PM61 °FBroken clouds.18 mph68%29.86 "Hg20 mi
12:00 PM61 °FPartly sunny.12 mph72%29.87 "Hg15 mi
11:00 AM59 °FScattered clouds.17 mph77%29.87 "Hg20 mi
10:00 AM57 °FBroken clouds.15 mph88%29.86 "Hg15 mi
9:00 AM54 °FBroken clouds.8 mph100%29.84 "Hg15 mi
8:00 AM54 °FSprinkles. Partly cloudy.9 mph94%29.83 "Hg15 mi
7:00 AM54 °FSprinkles. Passing clouds.6 mph94%29.81 "Hg20 mi
Weather by CustomWeather, © 2014

See weather overviewHow to use our weather pages